FW1683 Weather Reports


time (UTC)temp
C
wind
direction
speed
KPH
gust
KPH
rain 1hr
cm
rain 24hr
cm
rain mn
cm
humidity
%
barometer
mb
20260507132008 22 50 14.5 22.5 0.00 0.00 0.00 51 1011.1
20260507131009 22 56 17.7 27.4 0.00 0.00 0.00 52 1011.1
20260507130033 22 69 16.1 25.7 0.00 0.00 0.00 55 1011.2
20260507125011 21 63 16.1 24.1 0.00 0.00 0.00 58 1011.2
20260507123009 20 61 11.3 20.9 0.00 0.00 0.00 63 1011.5
20260507120015 18 46 12.9 22.5 0.00 0.00 0.00 73 1011.8
20260507114008 18 51 14.5 22.5 0.00 0.00 0.00 73 1012.1
20260507113008 18 44 17.7 27.4 0.00 0.00 0.00 69 1012.0
20260507112008 19 56 19.3 30.6 0.00 0.00 0.00 71 1012.2
20260507111009 20 61 14.5 24.1 0.00 0.00 0.00 68 1012.3
20260507105008 20 77 14.5 24.1 0.00 0.00 0.00 57 1012.5
20260507104011 20 60 19.3 29.0 0.00 0.00 0.00 60 1012.4
20260507103008 20 54 20.9 32.2 0.00 0.00 0.00 66 1012.3
20260507102008 20 51 25.7 37.0 0.00 0.00 0.00 62 1012.3
20260507100010 22 59 17.7 29.0 0.00 0.00 0.00 52 1012.3
20260507095008 22 52 16.1 24.1 0.00 0.00 0.00 54 1012.3
20260507094009 22 77 17.7 30.6 0.00 0.00 0.00 54 1012.3
20260507092008 21 54 17.7 27.4 0.00 0.00 0.00 55 1012.3
20260507091008 21 47 12.9 19.3 0.00 0.00 0.00 55 1012.3
20260507090022 21 37 12.9 20.9 0.00 0.00 0.00 57 1012.2
20260507085008 21 35 14.5 24.1 0.00 0.00 0.00 56 1012.3
20260507084009 22 23 11.3 22.5 0.00 0.00 0.00 57 1012.3
20260507075011 19 43 8.0 12.9 0.00 0.00 0.00 57 1012.4
20260507074008 19 40 9.7 14.5 0.00 0.00 0.00 57 1012.5
20260507073009 20 39 8.0 16.1 0.00 0.00 0.00 56 1012.4
20260507072008 19 24 8.0 12.9 0.00 0.00 0.00 54 1012.4
20260507071009 18 39 8.0 14.5 0.00 0.00 0.00 53 1012.2
20260507070013 18 36 4.8 8.0 0.00 0.00 0.00 54 1012.1
20260507065009 17 325 3.2 6.4 0.00 0.00 0.00 56 1012.1
20260507063009 17 338 4.8 8.0 0.00 0.00 0.00 61 1011.9
20260507062010 16 355 4.8 8.0 0.00 0.00 0.00 65 1011.9
20260507061008 15 339 4.8 9.7 0.00 0.00 0.00 69 1011.8
20260507060011 14 311 4.8 9.7 0.00 0.00 0.00 72 1011.6
20260507053022 13 113 1.6 4.8 0.00 0.00 0.00 77 1011.7
20260507051008 13 255 3.2 6.4 0.00 0.00 0.00 76 1011.6
20260507050011 13 302 9.7 14.5 0.00 0.00 0.00 76 1011.4
20260507045008 13 312 8.0 14.5 0.00 0.00 0.00 76 1011.2
20260507044008 13 308 9.7 16.1 0.00 0.00 0.00 76 1011.0
20260507043021 13 309 9.7 14.5 0.00 0.00 0.00 76 1011.0
20260507042022 13 306 11.3 16.1 0.00 0.00 0.00 76 1010.9
20260507041009 13 307 8.0 14.5 0.00 0.00 0.00 75 1011.0
20260507035007 13 308 11.3 16.1 0.00 0.00 0.00 75 1011.0
20260507034009 13 308 11.3 17.7 0.00 0.00 0.00 75 1011.0
20260507033020 14 313 12.9 17.7 0.00 0.00 0.00 75 1011.2
20260507032008 14 314 9.7 16.1 0.00 0.00 0.00 74 1011.3
20260507031008 14 321 8.0 12.9 0.00 0.00 0.00 74 1011.3
20260507030010 14 312 6.4 11.3 0.00 0.00 0.00 75 1011.4
20260507025008 14 314 9.7 16.1 0.00 0.00 0.00 75 1011.5
20260507024008 14 313 11.3 17.7 0.00 0.00 0.00 75 1011.5
20260507023020 14 300 8.0 12.9 0.00 0.00 0.00 75 1011.5
20260507022027 14 290 6.4 11.3 0.00 0.00 0.00 75 1011.5
20260507021007 14 295 6.4 9.7 0.00 0.00 0.00 74 1011.5
20260507020010 14 310 8.0 12.9 0.00 0.00 0.00 74 1011.5
20260507015008 14 308 9.7 14.5 0.00 0.00 0.00 74 1011.4
20260507014009 14 308 9.7 14.5 0.00 0.00 0.00 74 1011.5
20260507013011 14 301 8.0 14.5 0.00 0.00 0.00 74 1011.5
20260507012008 14 288 9.7 14.5 0.00 0.00 0.00 74 1011.6
20260507011009 15 301 8.0 11.3 0.00 0.00 0.00 72 1011.6
20260507004008 15 311 11.3 16.1 0.00 0.00 0.00 72 1011.7
20260507002008 15 308 8.0 11.3 0.00 0.00 0.00 72 1011.9
20260507000015 16 297 6.4 9.7 0.00 0.00 0.00 69 1012.1
20260506235007 16 326 4.8 6.4 0.00 0.00 0.00 69 1012.1
20260506234008 16 312 4.8 8.0 0.00 0.00 0.00 69 1012.2
20260506233010 16 298 8.0 11.3 0.00 0.00 0.00 69 1012.2
20260506232009 16 296 3.2 6.4 0.00 0.00 0.00 67 1012.3
20260506231007 16 312 4.8 6.4 0.00 0.00 0.00 66 1012.3
20260506230008 16 296 4.8 6.4 0.00 0.00 0.00 66 1012.3
20260506225007 17 0 3.2 4.8 0.00 0.00 0.00 65 1012.4
20260506224009 17 344 4.8 6.4 0.00 0.00 0.00 64 1012.3
20260506223010 17 338 4.8 8.0 0.00 0.00 0.00 64 1012.4
20260506222008 17 323 3.2 6.4 0.00 0.00 0.00 64 1012.3
20260506220008 17 315 1.6 3.2 0.00 0.00 0.00 64 1012.3
20260506215007 17 45 1.6 3.2 0.00 0.00 0.00 63 1012.4
20260506214008 17 93 3.2 4.8 0.00 0.00 0.00 61 1012.3
20260506212007 17 56 4.8 6.4 0.00 0.00 0.00 62 1012.2
20260506211008 17 75 4.8 9.7 0.00 0.00 0.00 62 1012.1
20260506205011 17 67 6.4 9.7 0.00 0.00 0.00 62 1012.0
20260506203019 17 87 3.2 6.4 0.00 0.00 0.00 63 1011.8
20260506202007 17 86 4.8 8.0 0.00 0.00 0.00 63 1011.7
20260506201009 17 69 4.8 9.7 0.00 0.00 0.00 62 1011.5
20260506200022 17 95 6.4 9.7 0.00 0.00 0.00 61 1011.5
20260506195008 17 96 4.8 9.7 0.00 0.00 0.00 62 1011.4
20260506194009 17 71 6.4 11.3 0.00 0.00 0.00 62 1011.3
20260506193007 17 96 6.4 11.3 0.00 0.00 0.00 62 1011.2
20260506192009 17 97 6.4 11.3 0.00 0.00 0.00 62 1011.0
20260506191007 17 82 8.0 12.9 0.00 0.00 0.00 61 1011.0
20260506190026 18 92 8.0 12.9 0.00 0.00 0.00 62 1010.9
20260506185008 18 87 8.0 12.9 0.00 0.00 0.00 61 1010.8
20260506183006 18 99 8.0 11.3 0.00 0.00 0.00 59 1010.7
20260506182008 18 111 8.0 14.5 0.00 0.00 0.00 59 1010.6
20260506181025 18 112 9.7 14.5 0.00 0.00 0.00 58 1010.5
20260506180009 18 116 9.7 17.7 0.00 0.00 0.00 58 1010.4
20260506175009 18 120 12.9 19.3 0.00 0.00 0.00 57 1010.4
20260506174008 18 95 9.7 14.5 0.00 0.00 0.00 58 1010.4
20260506173019 19 82 11.3 19.3 0.00 0.00 0.00 56 1010.5
20260506172008 19 74 12.9 19.3 0.00 0.00 0.00 55 1010.5
20260506170009 20 95 14.5 22.5 0.00 0.00 0.00 55 1010.6
20260506165008 20 97 11.3 19.3 0.00 0.00 0.00 52 1010.8
20260506164008 20 94 11.3 17.7 0.00 0.00 0.00 53 1010.6
20260506163019 20 92 11.3 17.7 0.00 0.00 0.00 53 1010.7
20260506162007 19 98 12.9 20.9 0.00 0.00 0.00 51 1010.7
20260506161009 20 96 12.9 22.5 0.00 0.00 0.00 53 1010.6
20260506160032 20 113 12.9 19.3 0.00 0.00 0.00 53 1010.6
20260506155008 19 103 11.3 17.7 0.00 0.00 0.00 53 1010.6
20260506154008 20 83 12.9 22.5 0.00 0.00 0.00 55 1010.6
20260506153007 20 89 17.7 27.4 0.00 0.00 0.00 53 1010.5
20260506152007 20 106 17.7 29.0 0.00 0.00 0.00 52 1010.3
20260506151010 19 103 17.7 25.7 0.00 0.00 0.00 55 1010.1
20260506145008 19 116 9.7 14.5 0.00 0.00 0.00 54 1010.8
20260506144008 20 120 9.7 16.1 0.00 0.00 0.00 55 1011.0
20260506143008 20 95 12.9 19.3 0.00 0.00 0.00 55 1010.8
20260506142008 19 119 11.3 20.9 0.00 0.00 0.00 57 1011.0
20260506141007 19 115 14.5 24.1 0.00 0.00 0.00 56 1010.9
20260506140012 19 114 14.5 22.5 0.00 0.00 0.00 56 1010.9
20260506135007 19 105 17.7 27.4 0.00 0.00 0.00 57 1010.9
20260506134008 20 113 19.3 30.6 0.00 0.00 0.00 56 1010.9
20260506133008 20 114 14.5 24.1 0.00 0.00 0.00 54 1010.9